• In Czech Republic
  • List of Countries
  • For 7 days
  • Water Temperature
  • Satellite Maps
  • Weather Map
  • Weather Widgets
  • user-avatar
    Login

    Hourly Weather Ostend

    Today, 15 December, Friday

    Time Temperature Precipitation Wind Pressure Humidity
    00:00 -1°C° 0 mm 6 mps 741 mmHg 87%
    01:00 -1°C° 0 mm 6 mps 741 mmHg 88%
    02:00 -1°C° 0 mm 6 mps 742 mmHg 89%
    03:00 -1°C° 0 mm 6 mps 742 mmHg 90%
    04:00 0°C° 0 mm 5 mps 742 mmHg 90%
    05:00 0°C° 0 mm 5 mps 742 mmHg 91%
    06:00 0°C° 0 mm 5 mps 742 mmHg 91%
    07:00 0°C° 0.1 mm 4 mps 742 mmHg 90%
    08:00 +1°C° 0.1 mm 4 mps 743 mmHg 90%
    09:00 +1°C° 0.1 mm 4 mps 743 mmHg 89%
    10:00 +1°C° 0.2 mm 4 mps 744 mmHg 88%
    11:00 +3°C° 0.2 mm 3 mps 744 mmHg 88%
    12:00 +4°C° 0.2 mm 3 mps 745 mmHg 87%
    13:00 +4°C° 0.2 mm 4 mps 745 mmHg 87%
    14:00 +4°C° 0.2 mm 4 mps 746 mmHg 88%
    15:00 +4°C° 0.2 mm 4 mps 747 mmHg 88%
    16:00 +3°C° 0.2 mm 5 mps 747 mmHg 87%
    17:00 +2°C° 0.2 mm 6 mps 748 mmHg 86%
    18:00 +2°C° 0.2 mm 6 mps 749 mmHg 85%
    19:00 +2°C° 0 mm 6 mps 750 mmHg 85%
    20:00 +2°C° 0 mm 6 mps 751 mmHg 84%
    21:00 +2°C° 0 mm 6 mps 752 mmHg 84%
    22:00 +2°C° 0.1 mm 6 mps 753 mmHg 84%
    23:00 +2°C° 0.1 mm 6 mps 753 mmHg 84%

    Tomorrow, 16 December, Saturday

    Time Temperature Precipitation Wind Pressure Humidity
    00:00 +2°C° 0.1 mm 7 mps 754 mmHg 84%
    01:00 +2°C° 0.1 mm 7 mps 755 mmHg 83%
    02:00 +2°C° 0.1 mm 7 mps 756 mmHg 81%
    03:00 +2°C° 0.1 mm 7 mps 756 mmHg 80%
    04:00 +2°C° 0.2 mm 7 mps 757 mmHg 80%
    05:00 +2°C° 0.2 mm 7 mps 757 mmHg 80%
    06:00 +1°C° 0.2 mm 8 mps 758 mmHg 80%
    07:00 +1°C° 0.2 mm 8 mps 758 mmHg 79%
    08:00 +2°C° 0.2 mm 7 mps 759 mmHg 79%
    09:00 +2°C° 0.2 mm 7 mps 759 mmHg 79%
    10:00 +2°C° 0.2 mm 8 mps 760 mmHg 77%
    11:00 +2°C° 0.2 mm 8 mps 760 mmHg 75%
    12:00 +2°C° 0.2 mm 8 mps 761 mmHg 73%
    13:00 +2°C° 0.1 mm 8 mps 761 mmHg 74%
    14:00 +3°C° 0.1 mm 7 mps 761 mmHg 74%
    15:00 +2°C° 0.1 mm 7 mps 762 mmHg 75%
    16:00 +2°C° 0.1 mm 7 mps 762 mmHg 76%
    17:00 +2°C° 0.1 mm 7 mps 763 mmHg 77%
    18:00 0°C° 0.1 mm 7 mps 763 mmHg 78%
    19:00 0°C° 0.1 mm 7 mps 764 mmHg 79%
    20:00 +1°C° 0.1 mm 6 mps 765 mmHg 80%
    21:00 +1°C° 0.1 mm 6 mps 765 mmHg 81%
    22:00 +1°C° 0.1 mm 6 mps 765 mmHg 81%
    23:00 +1°C° 0.1 mm 6 mps 766 mmHg 81%

    Day after tomorrow, 17 December, Sunday

    Time Temperature Precipitation Wind Pressure Humidity
    00:00 +1°C° 0.1 mm 6 mps 766 mmHg 82%
    01:00 +1°C° 0.1 mm 6 mps 766 mmHg 82%
    02:00 +1°C° 0.1 mm 6 mps 767 mmHg 81%
    03:00 +1°C° 0.1 mm 6 mps 767 mmHg 81%
    04:00 +1°C° 0 mm 6 mps 767 mmHg 82%
    05:00 0°C° 0 mm 5 mps 767 mmHg 82%
    06:00 0°C° 0 mm 5 mps 767 mmHg 82%
    07:00 +1°C° 0 mm 5 mps 768 mmHg 82%
    08:00 +1°C° 0 mm 5 mps 768 mmHg 81%
    09:00 +1°C° 0 mm 5 mps 769 mmHg 81%
    10:00 +2°C° 0 mm 5 mps 769 mmHg 78%
    11:00 +3°C° 0 mm 6 mps 769 mmHg 76%
    12:00 +4°C° 0 mm 6 mps 768 mmHg 74%
    13:00 +4°C° 0 mm 6 mps 768 mmHg 76%
    14:00 +4°C° 0 mm 6 mps 768 mmHg 79%
    15:00 +4°C° 0 mm 6 mps 768 mmHg 81%
    16:00 +4°C° 0.1 mm 7 mps 768 mmHg 83%
    17:00 +4°C° 0.1 mm 8 mps 767 mmHg 85%
    18:00 +4°C° 0.1 mm 8 mps 767 mmHg 87%
    19:00 +3°C° 0.2 mm 9 mps 767 mmHg 87%
    20:00 +5°C° 0.2 mm 10 mps 766 mmHg 88%
    21:00 +6°C° 0.2 mm 10 mps 766 mmHg 88%
    22:00 +6°C° 0.4 mm 10 mps 766 mmHg 88%
    23:00 +7°C° 0.4 mm 10 mps 765 mmHg 88%

    18 December, Monday

    Time Temperature Precipitation Wind Pressure Humidity
    00:00 +7°C° 0.4 mm 10 mps 765 mmHg 89%
    01:00 +7°C° 0.1 mm 10 mps 766 mmHg 89%
    02:00 +7°C° 0.1 mm 9 mps 766 mmHg 89%
    03:00 +7°C° 0.1 mm 8 mps 766 mmHg 89%
    04:00 +6°C° 0 mm 7 mps 766 mmHg 86%
    05:00 +5°C° 0 mm 7 mps 767 mmHg 84%
    06:00 +4°C° 0 mm 6 mps 767 mmHg 81%
    07:00 +4°C° 0 mm 6 mps 768 mmHg 81%
    08:00 +5°C° 0 mm 5 mps 769 mmHg 81%
    09:00 +5°C° 0 mm 5 mps 770 mmHg 80%
    10:00 +6°C° 0 mm 5 mps 770 mmHg 77%
    11:00 +6°C° 0 mm 5 mps 770 mmHg 74%
    12:00 +7°C° 0 mm 5 mps 770 mmHg 71%
    13:00 +7°C° 0 mm 5 mps 771 mmHg 74%
    14:00 +6°C° 0 mm 4 mps 771 mmHg 77%
    15:00 +6°C° 0 mm 4 mps 771 mmHg 80%
    16:00 +5°C° 0 mm 3 mps 772 mmHg 83%
    17:00 +5°C° 0 mm 3 mps 772 mmHg 85%
    18:00 +5°C° 0 mm 2 mps 773 mmHg 88%
    19:00 +5°C° 0 mm 2 mps 773 mmHg 88%
    20:00 +5°C° 0 mm 2 mps 773 mmHg 88%
    21:00 +5°C° 0 mm 1 mps 774 mmHg 89%
    22:00 +5°C° 0 mm 1 mps 774 mmHg 89%
    23:00 +5°C° 0 mm 1 mps 774 mmHg 90%

    19 December, Tuesday

    Time Temperature Precipitation Wind Pressure Humidity
    00:00 +5°C° 0 mm 1 mps 774 mmHg 90%
    01:00 +4°C° 0 mm 2 mps 774 mmHg 90%
    02:00 +4°C° 0 mm 2 mps 775 mmHg 90%
    03:00 +3°C° 0 mm 2 mps 775 mmHg 90%
    04:00 +3°C° 0 mm 2 mps 775 mmHg 90%
    05:00 +3°C° 0 mm 2 mps 775 mmHg 90%
    06:00 +3°C° 0 mm 2 mps 775 mmHg 90%
    07:00 +3°C° 0 mm 2 mps 776 mmHg 89%
    08:00 +2°C° 0 mm 3 mps 776 mmHg 89%
    09:00 +1°C° 0 mm 4 mps 777 mmHg 88%
    10:00 +3°C° 0 mm 4 mps 777 mmHg 84%
    11:00 +4°C° 0 mm 4 mps 776 mmHg 80%
    12:00 +5°C° 0 mm 4 mps 776 mmHg 76%
    13:00 +5°C° 0 mm 4 mps 776 mmHg 79%
    14:00 +5°C° 0 mm 4 mps 776 mmHg 81%
    15:00 +4°C° 0 mm 4 mps 776 mmHg 83%
    16:00 +4°C° 0 mm 4 mps 776 mmHg 84%
    17:00 +3°C° 0 mm 5 mps 776 mmHg 85%
    18:00 +2°C° 0 mm 5 mps 776 mmHg 87%
    19:00 +3°C° 0.2 mm 5 mps 777 mmHg 86%
    20:00 +3°C° 0.2 mm 5 mps 777 mmHg 85%
    21:00 +3°C° 0.2 mm 5 mps 777 mmHg 84%
    22:00 +5°C° 0.1 mm 5 mps 777 mmHg 85%
    23:00 +5°C° 0.1 mm 5 mps 777 mmHg 86%

    20 December, Wednesday

    Time Temperature Precipitation Wind Pressure Humidity
    00:00 +5°C° 0.1 mm 5 mps 777 mmHg 86%
    01:00 +5°C° 0.1 mm 4 mps 777 mmHg 89%
    02:00 +6°C° 0.1 mm 4 mps 777 mmHg 91%
    03:00 +6°C° 0.1 mm 4 mps 777 mmHg 94%
    04:00 +6°C° 0 mm 4 mps 777 mmHg 95%
    05:00 +7°C° 0 mm 4 mps 777 mmHg 96%
    06:00 +7°C° 0 mm 4 mps 777 mmHg 97%
    07:00 +7°C° 0 mm 4 mps 777 mmHg 96%
    08:00 +9°C° 0 mm 3 mps 778 mmHg 96%
    09:00 +9°C° 0 mm 3 mps 778 mmHg 96%
    10:00 +8°C° 0 mm 4 mps 778 mmHg 94%
    11:00 +10°C° 0 mm 4 mps 778 mmHg 93%
    12:00 +11°C° 0 mm 4 mps 778 mmHg 91%
    13:00 +11°C° 0 mm 4 mps 778 mmHg 92%
    14:00 +10°C° 0 mm 4 mps 778 mmHg 93%
    15:00 +10°C° 0 mm 4 mps 778 mmHg 93%
    16:00 +10°C° 0 mm 4 mps 778 mmHg 94%
    17:00 +9°C° 0 mm 3 mps 778 mmHg 95%
    18:00 +8°C° 0 mm 3 mps 779 mmHg 96%
    19:00 +8°C° 0 mm 3 mps 779 mmHg 96%
    20:00 +8°C° 0 mm 3 mps 779 mmHg 96%
    21:00 +8°C° 0 mm 3 mps 779 mmHg 96%
    22:00 +7°C° 0 mm 3 mps 779 mmHg 96%
    23:00 +7°C° 0 mm 3 mps 779 mmHg 95%
    Show more